METEOR 2-5 DEB

Satellite information

Favourite Embed

Satellite Type and Status

DEBRISIN ORBIT

Key statistics

Satellite METEOR 2-5 DEB at a glance.

Uptime

16750

Days in orbit

Revolutions

≈ 14.4

Per day

Orbit

LEO

Low Earth Orbit

Inclination

81.2

Latest

Satellite identification and parameters

Extended collection of information and parameters for METEOR 2-5 DEB.

Object identification

Identified? True

Debris? True

Object name: METEOR 2-5 DEB

International designator: 1979-095BT

Object number (NORAD): 38273

Object ID (CCSDS): 38273

Country: COMMONWEALTH OF INDEPENDENT STATES (CIS)

Current information (Y/N): Y

RCS size: SMALL

Orbital parameters

Period: 100.02 minutes

Inclination: 81.2195 deg

SMA: 7137.61 km

Apoapsis: 761.937 km

Periapsis: 757.014 km

RAAN: 55.7562 deg

Eccentricy: 0.00034487

Argument of periapsis: 303.3842 deg

Mean anomaly: 56.7015 deg

Mean motion: 14.39705037 rev/day

Mean motion (dot): 0.00005801 rev/day2

B* drag term: 0.0018489235 1/REarth

Two-line elements (TLE)

Creation date: Sept. 2, 2025, 10:20 a.m.

Reference frame: TEME

Reference center: EARTH

Epoch: Sept. 2, 2025, 5:05 a.m. UTC

TLE line 0: 0 METEOR 2-5 DEB

TLE line 1: 1 38273U 79095BT 25245.21213555 .00005801 00000-0 18489-2 0 9991

TLE line 2: 2 38273 81.2195 55.7562 0003449 303.3842 56.7015 14.39705037634460

Live tracking on map

Real-time ground track for satellite METEOR 2-5 DEB.

In-orbit conjunctions

A list of the most updated potential collisions computed for object METEOR 2-5 DEB.

Target Orbit TCA Probability of collision Miss distance Type
FENGYUN 1C DEB SSO 2025-08-14 08:55:55 0.001137375 33.0 (m) DEBRIS
DMSP 5D-2 F13 DEB SSO 2025-02-16 00:46:00 0.0001023848 111.0 (m) DEBRIS

Associated space launch

Second generation soviet meteorological satellite

METEOR 2-5 DEB was lifted into orbit during the mission ‘Vostok 8A92M | Meteor-2 5’, on board a Vostok 8A92M space rocket.

The launch took place on Oct. 31, 1979, 9:25 a.m. from 43/4 (43R).

For more information about the launch, click the button.

Launch to space Vostok 8A92M | Meteor-2 5
Vostok 8A92M | Meteor-2 5

Agency: N/A

Status: Launch Successful

Launch date: Oct. 31, 1979, 9:25 a.m. UTC

Rocket: Vostok 8A92M

Launch pad: 43/4 (43R)

Location: Plesetsk Cosmodrome, Russian Federation

...

Latest news about this satellite

There are no fresh news available about this satellite. Check back as we update our databases every day.


Newsletter sign-up

Weekly statistics, charts and insights to help you stay on top of the space industry.